EW6025 Weather Reports


time (UTC)temp
F
wind
direction
speed
knots
gust
knots
rain 1hr
in
rain 24hr
in
rain mn
in
humidity
%
barometer
mb
20260506113517 52 0.0 0.0 0.00 0.01 0.00 91 1020.6
20260506112625 53 0.0 0.0 0.00 0.01 0.00 91 1020.6
20260506111521 53 0.0 0.0 0.00 0.01 0.00 91 1020.6
20260506110517 53 0.0 0.0 0.00 0.01 0.00 91 1020.5
20260506105527 53 0.0 0.0 0.00 0.01 0.00 91 1020.4
20260506104538 53 0.0 0.0 0.00 0.01 0.00 90 1020.3
20260506103521 53 0.0 0.0 0.00 0.01 0.00 90 1020.2
20260506102540 53 0.0 0.0 0.00 0.01 0.00 90 1020.1
20260506101519 53 0.0 0.0 0.00 0.01 0.00 90 1020.0
20260506100523 53 0.0 0.0 0.00 0.01 0.00 90 1020.0
20260506095520 53 0.0 0.0 0.00 0.01 0.00 90 1020.0
20260506094522 53 0.0 0.0 0.00 0.01 0.00 90 1019.9
20260506093524 53 0.0 0.0 0.00 0.01 0.00 90 1019.9
20260506092520 53 0.0 0.0 0.00 0.01 0.00 90 1019.8
20260506091522 53 0.0 0.0 0.00 0.01 0.00 89 1019.9
20260506090521 53 0.0 0.0 0.00 0.01 0.00 89 1019.9
20260506085523 53 0.0 0.0 0.00 0.01 0.00 89 1019.8
20260506084524 53 0.0 0.0 0.00 0.01 0.00 89 1019.9
20260506083522 54 0.0 0.0 0.00 0.01 0.00 89 1019.8
20260506082525 53 0.0 0.0 0.00 0.01 0.00 89 1019.7
20260506081611 53 0.0 0.0 0.00 0.01 0.00 89 1019.8
20260506080523 53 0.0 0.0 0.00 0.01 0.00 89 1019.8
20260506073518 54 0.0 0.0 0.00 0.01 0.00 89 1019.7
20260506072524 54 0.0 0.0 0.00 0.01 0.00 89 1019.7
20260506071516 54 0.0 0.0 0.00 0.01 0.00 89 1019.6
20260506070543 54 0.0 0.0 0.00 0.01 0.00 89 1019.5
20260506061522 54 0.0 0.0 0.00 0.01 0.01 89 1019.1
20260506060520 54 0.0 0.0 0.00 0.01 0.01 89 1018.9
20260506050538 54 0.0 0.9 0.00 0.01 0.01 88 1018.7
20260506044527 54 0.0 0.9 0.00 0.01 0.01 88 1018.6
20260506043518 54 0.0 0.0 0.00 0.01 0.01 89 1018.4
20260506042542 54 0.0 0.0 0.00 0.01 0.01 88 1018.4
20260506041521 54 0.0 0.0 0.00 0.01 0.01 88 1018.3
20260506040527 54 0.0 0.9 0.00 0.01 0.01 88 1018.0
20260506035539 54 187 0.0 0.9 0.00 0.01 0.01 88 1017.9
20260506034526 54 0.0 0.9 0.00 0.01 0.01 88 1017.8
20260506033606 55 189 0.0 0.9 0.00 0.01 0.01 88 1017.7
20260506032521 55 0.0 1.7 0.00 0.01 0.01 88 1017.6
20260506031524 55 0.0 0.9 0.00 0.01 0.01 87 1017.4
20260506030523 55 0.0 0.0 0.00 0.01 0.01 87 1017.4
20260506025540 55 0.0 0.0 0.00 0.01 0.01 87 1017.3
20260506024540 56 0.0 0.9 0.00 0.01 0.01 86 1017.2
20260506023519 56 0.0 0.9 0.00 0.01 0.01 86 1017.1
20260506022524 56 0.0 2.6 0.00 0.01 0.01 85 1017.0
20260506021523 57 105 0.0 1.7 0.00 0.01 0.01 84 1017.0
20260506020529 57 0.0 0.9 0.00 0.01 0.01 84 1016.9
20260506015521 57 106 0.0 0.9 0.00 0.01 0.01 83 1016.9
20260506014522 57 0.0 1.7 0.00 0.01 0.01 83 1016.8
20260506013520 58 106 0.0 1.7 0.00 0.01 0.01 83 1016.8
20260506012545 58 0.0 1.7 0.00 0.01 0.01 84 1016.8
20260506011520 57 0.0 0.9 0.00 0.01 0.01 84 1016.8
20260506010541 57 109 0.0 0.9 0.00 0.01 0.01 84 1016.8
20260506005522 58 109 0.0 0.9 0.00 0.01 0.01 84 1016.7
20260506004523 57 178 0.0 1.7 0.00 0.01 0.01 84 1016.8
20260506003522 58 178 0.0 1.7 0.00 0.01 0.01 84 1016.8
20260506002522 58 0.0 1.7 0.00 0.01 0.01 85 1016.7
20260506001521 58 179 0.0 1.7 0.00 0.01 0.01 84 1016.7
20260506000518 58 180 0.0 1.7 0.00 0.01 0.01 84 1016.7
20260505235519 58 0.0 0.9 0.00 0.01 0.01 85 1016.7
20260505234517 57 0.0 1.7 0.00 0.01 0.01 85 1016.8
20260505233631 57 208 0.0 1.7 0.00 0.01 0.01 85 1016.8
20260505232519 58 0.0 1.7 0.00 0.01 0.01 85 1016.8
20260505231538 58 155 0.0 1.7 0.00 0.01 0.01 85 1016.9
20260505230525 58 157 0.0 1.7 0.00 0.01 0.01 85 1017.0
20260505225520 58 93 0.0 0.9 0.00 0.01 0.01 85 1017.0
20260505224518 58 55 0.0 1.7 0.00 0.01 0.01 84 1017.0
20260505223522 59 74 0.0 1.7 0.00 0.01 0.01 84 1017.0
20260505222525 59 61 0.0 0.9 0.00 0.01 0.01 83 1017.1
20260505221524 59 59 0.0 3.5 0.00 0.01 0.01 82 1017.1
20260505220523 60 81 0.0 2.6 0.00 0.01 0.01 83 1017.0
20260505215521 59 0.0 3.5 0.00 0.01 0.01 83 1017.0
20260505214524 60 202 0.0 2.6 0.00 0.01 0.01 82 1017.1
20260505213519 60 207 0.0 1.7 0.00 0.01 0.01 81 1017.1
20260505212626 60 207 0.0 1.7 0.00 0.01 0.01 81 1017.0
20260505211528 60 106 0.0 2.6 0.00 0.01 0.01 81 1016.9
20260505210519 60 169 0.0 4.3 0.00 0.01 0.01 81 1016.9
20260505205526 60 215 0.0 2.6 0.00 0.01 0.01 81 1016.8
20260505204529 60 215 0.0 2.6 0.00 0.01 0.01 81 1016.8
20260505203524 60 0.0 1.7 0.00 0.01 0.01 83 1016.9
20260505202549 60 219 0.0 2.6 0.00 0.01 0.01 82 1016.9
20260505201520 60 220 0.9 3.5 0.00 0.01 0.01 82 1016.9
20260505200609 59 189 0.0 3.5 0.00 0.01 0.01 82 1016.9
20260505195525 59 167 0.9 3.5 0.00 0.01 0.01 82 1016.9
20260505194526 59 221 0.0 1.7 0.00 0.01 0.01 82 1016.8
20260505193527 59 221 0.0 1.7 0.00 0.01 0.01 82 1016.8
20260505192518 59 221 0.0 1.7 0.00 0.01 0.01 82 1016.9
20260505191524 59 221 0.0 1.7 0.00 0.01 0.01 82 1016.8
20260505190517 59 221 0.0 1.7 0.00 0.01 0.01 81 1016.7
20260505185518 59 223 0.0 1.7 0.00 0.01 0.01 80 1016.6
20260505184522 59 223 0.0 1.7 0.00 0.01 0.01 81 1016.6
20260505183520 59 202 0.0 1.7 0.00 0.01 0.01 81 1016.5
20260505182521 59 248 0.0 0.9 0.00 0.01 0.01 81 1016.5
20260505181522 59 263 0.0 1.7 0.00 0.01 0.01 82 1016.5
20260505180524 59 23 0.0 1.7 0.00 0.01 0.01 83 1016.4
20260505175521 59 0.0 0.9 0.00 0.02 0.01 83 1016.4
20260505174547 59 49 0.0 0.9 0.00 0.02 0.01 83 1016.3
20260505173600 58 49 0.0 1.7 0.00 0.02 0.01 83 1016.2
20260505172523 58 47 0.0 1.7 0.00 0.02 0.01 83 1016.2
20260505171522 58 40 0.0 1.7 0.00 0.02 0.01 84 1016.2
20260505170522 58 40 0.0 0.9 0.00 0.02 0.01 84 1016.2
20260505165521 58 38 0.0 1.7 0.00 0.02 0.01 85 1016.2
20260505164526 58 0.0 0.9 0.00 0.02 0.01 86 1016.1
20260505163523 57 0.0 3.5 0.00 0.02 0.01 87 1016.1
20260505162525 57 308 0.0 3.5 0.00 0.02 0.01 87 1016.0
20260505161528 57 204 0.0 1.7 0.00 0.02 0.01 88 1016.0
20260505160520 56 286 0.0 0.9 0.00 0.02 0.01 89 1016.0
20260505152521 55 0.0 0.0 0.00 0.02 0.01 91 1016.1
20260505151519 55 0.0 0.9 0.00 0.02 0.01 92 1015.9
20260505150516 54 0.0 0.9 0.00 0.02 0.01 92 1015.9
20260505140525 53 0.0 0.0 0.00 0.02 0.01 92 1015.4
20260505124518 53 0.0 0.0 0.01 0.02 0.01 92 1015.2
20260505123518 53 0.0 0.0 0.01 0.02 0.01 92 1015.2
20260505122520 53 0.0 0.0 0.01 0.02 0.01 92 1015.1
20260505121517 53 0.0 0.0 0.01 0.02 0.01 92 1015.1
20260505120548 53 0.0 0.0 0.01 0.02 0.01 91 1015.1
20260505115519 53 0.0 0.0 0.00 0.01 0.00 91 1015.1
20260505114520 53 0.0 0.9 0.00 0.01 0.00 91 1015.1